Погода в Чарышском

Россия / Алтайский край     51°23′50″N   83°33′25″E
темп.,
°C
ветер,
м/с
пор.,
м/с
влажн.,
%
обл.,
%
осадки,
мм/ч
давл.,
гПа
погр.,
м
15 мая, сб
сб1501:00+7юв118699 0.2 102510
04:00+6вюв1187100 0.0 102510
07:00+8вюв1183100 0.0 102627
10:00+14всв135913 0.0 1025571
13:00+18св23405 0.0 10231388
16:00+20ссв23395 0.0 10221686
19:00+19ссв34535 0.0 1021407
22:00+12св11673 0.0 102210
16 мая, вс
вс1601:00+10юв22785 0.0 102210
04:00+9юв22795 0.0 102213
07:00+10юв22755 0.0 102138
10:00+18ююз22525 0.0 1019408
13:00+21зюз44415 0.0 10181206
16:00+22з56435 0.0 10171619
19:00+21юз47535 0.0 1015432
22:00+14ю33695 0.3 101533
17 мая, пн
пн1701:00+13ю33769 0.8 101437
04:00+12зюз1180100 0.3 101412
07:00+13юз018597 1.4 101543
10:00+16з357446 0.8 1016739
13:00+18сз447388 3.4 10161006
16:00+18сз336653 1.4 10161099
19:00+18ссз3667100 2.3 1016270
22:00+15всв117396 0.1 101710
18 мая, вт
вт1801:00+12юв11825 0.1 101610
04:00+10ююв22885 0.0 101618
07:00+12ююв22825 0.0 101663
10:00+19ююз3555100 0.0 1013481
13:00+21зюз810535 0.0 10121295
16:00+21зюз91060100 0.5 10091786
19:00+18ю3773100 6.6 1009320
22:00+13ююв239144 2.0 101147
19 мая, ср
ср1901:00+11юв3289100 2.8 101026
04:00+11з1188100 0.1 100921
07:00+12ююв2390100 1.3 1007110
10:00+16з71080100 2.1 1006913
13:00+13зюз4991100 7.9 1006632
16:00+16з467424 2.8 1005955
19:00+14ссз3586100 7.6 1003353
22:00+10сз2398100 6.6 1004151